KX4BE Weather Reports


Display with metric or nautical units.
time (UTC)temp
F
wind
direction
speed
MPH
gust
MPH
rain 1hr
in
rain 24hr
in
rain mn
in
humidity
%
barometer
mb
20260510171838 81 299 4.0 8.0 0.00 0.00 0.00 44 1019.4
20260510171338 80 168 4.0 7.0 0.00 0.00 0.00 45 1019.5
20260510170835 80 66 2.0 6.0 0.00 0.00 0.00 46 1019.5
20260510170356 80 35 4.0 8.0 0.00 0.00 0.00 44 1019.6
20260510165910 80 115 4.0 8.0 0.00 0.00 0.00 47 1019.7
20260510165349 80 147 2.0 10.0 0.00 0.00 0.00 45 1019.7
20260510164848 80 163 4.0 10.0 0.00 0.00 0.00 49 1019.6
20260510164348 80 94 3.0 10.0 0.00 0.00 0.00 47 1019.6
20260510163844 80 82 5.0 10.0 0.00 0.00 0.00 48 1019.7
20260510163344 80 76 1.0 7.0 0.00 0.00 0.00 49 1019.8
20260510162836 79 101 3.0 6.0 0.00 0.00 0.00 50 1019.9
20260510162336 79 118 2.0 4.0 0.00 0.00 0.00 50 1019.9
20260510161833 78 139 1.0 3.0 0.00 0.00 0.00 48 1019.8
20260510161352 77 26 1.0 3.0 0.00 0.00 0.00 46 1019.8
20260510160842 77 30 0.0 4.0 0.00 0.00 0.00 51 1019.7
20260510160342 77 32 2.0 5.0 0.00 0.00 0.00 55 1019.8
20260510155838 78 197 2.0 7.0 0.00 0.00 0.00 55 1019.8
20260510155337 78 165 5.0 7.0 0.00 0.00 0.00 66 1019.7
20260510154835 78 129 5.0 8.0 0.00 0.00 0.00 66 1019.8
20260510154331 78 142 3.0 7.0 0.00 0.00 0.00 69 1019.8
20260510153833 78 209 3.0 8.0 0.00 0.00 0.00 70 1019.7
20260510153353 77 157 4.0 8.0 0.00 0.00 0.00 70 1019.7
20260510152906 77 152 3.0 7.0 0.00 0.00 0.00 73 1019.7
20260510152345 77 105 2.0 7.0 0.00 0.00 0.00 72 1019.7
20260510151841 77 138 3.0 8.0 0.00 0.00 0.00 72 1019.7
20260510151341 76 149 4.0 8.0 0.00 0.00 0.00 74 1019.8
20260510150836 76 206 2.0 5.0 0.00 0.00 0.00 75 1019.8
20260510150357 76 78 2.0 6.0 0.00 0.00 0.00 73 1019.7
20260510145852 76 49 3.0 6.0 0.00 0.00 0.00 74 1019.7
20260510145331 76 82 4.0 6.0 0.00 0.00 0.00 74 1019.8
20260510144909 75 127 2.0 4.0 0.00 0.00 0.00 74 1019.8
20260510144348 75 169 2.0 4.0 0.00 0.00 0.00 75 1019.9
20260510143845 74 148 2.0 4.0 0.00 0.00 0.00 75 1019.8
20260510143346 74 68 2.0 4.0 0.00 0.00 0.00 76 1019.8
20260510142901 74 74 2.0 3.0 0.00 0.00 0.00 76 1019.8
20260510142340 74 15 0.0 2.0 0.00 0.00 0.00 77 1019.8
20260510141837 74 125 1.0 0.0 0.00 0.00 0.00 75 1019.5
20260510141337 74 165 1.0 5.0 0.00 0.00 0.00 74 1019.8
20260510140835 74 163 3.0 5.0 0.00 0.00 0.00 75 1019.7
20260510140414 73 163 2.0 5.0 0.00 0.00 0.00 77 1019.7
20260510135909 73 167 2.0 4.0 0.00 0.00 0.00 78 1019.6
20260510135348 72 178 1.0 3.0 0.00 0.00 0.00 77 1019.6
20260510134906 72 170 2.0 3.0 0.00 0.00 0.00 78 1019.5
20260510134345 72 212 2.0 4.0 0.00 0.00 0.00 77 1019.6
20260510133848 71 140 2.0 4.0 0.00 0.00 0.00 78 1019.5
20260510133349 71 193 1.0 3.0 0.00 0.00 0.00 79 1019.6
20260510132841 71 21 0.0 3.0 0.00 0.00 0.00 79 1019.9
20260510132401 70 20 1.0 2.0 0.00 0.00 0.00 80 1019.7
20260510131835 70 20 1.0 2.0 0.00 0.00 0.00 81 1019.7
20260510131336 70 20 1.0 2.0 0.00 0.00 0.00 81 1019.5
20260510130833 69 17 1.0 2.0 0.00 0.00 0.00 82 1019.6
20260510130334 69 156 0.0 3.0 0.00 0.00 0.00 82 1019.6
20260510125847 68 156 1.0 3.0 0.00 0.00 0.00 84 1019.6
20260510125347 67 67 0.0 0.0 0.00 0.00 0.00 84 1019.6
20260510124845 67 67 0.0 0.0 0.00 0.00 0.00 85 1019.6
20260510124345 66 67 0.0 1.0 0.00 0.00 0.00 87 1019.6
20260510123903 65 67 0.0 3.0 0.00 0.00 0.00 89 1019.4
20260510123342 64 67 0.0 3.0 0.00 0.00 0.00 90 1019.4
20260510122838 63 192 1.0 2.0 0.00 0.00 0.00 89 1019.3
20260510122335 63 192 0.0 2.0 0.00 0.00 0.00 90 1019.4
20260510121839 63 192 0.0 2.0 0.00 0.00 0.00 89 1019.3
20260510121359 63 192 1.0 3.0 0.00 0.00 0.00 89 1019.3
20260510120833 63 192 2.0 4.0 0.00 0.00 0.00 90 1019.1
20260510120414 63 187 1.0 4.0 0.00 0.00 0.00 91 1019.0
20260510115846 63 208 1.0 3.0 0.00 0.00 0.00 91 1019.1
20260510115346 62 208 0.0 3.0 0.00 0.00 0.00 91 1019.1
20260510114902 62 208 1.0 3.0 0.00 0.00 0.00 91 1019.1
20260510114401 62 198 0.0 1.0 0.00 0.00 0.00 92 1019.0
20260510113835 61 198 0.0 6.0 0.00 0.00 0.00 93 1018.9
20260510113355 61 198 2.0 6.0 0.00 0.00 0.00 94 1018.8
20260510112849 60 220 1.0 4.0 0.00 0.00 0.00 94 1018.6
20260510112349 60 209 1.0 4.0 0.00 0.00 0.00 94 1018.6
20260510111845 60 212 1.0 4.0 0.00 0.00 0.00 94 1018.5
20260510111406 60 234 0.0 2.0 0.00 0.00 0.00 94 1018.4
20260510110843 60 234 1.0 4.0 0.00 0.00 0.00 94 1018.3
20260510110343 59 153 1.0 4.0 0.00 0.00 0.00 94 1018.2
20260510105840 59 212 1.0 4.0 0.00 0.00 0.00 94 1018.1
20260510105339 60 194 1.0 4.0 0.00 0.00 0.00 94 1017.9
20260510104836 60 201 0.0 4.0 0.00 0.00 0.00 94 1017.9
20260510104351 60 215 0.0 5.0 0.00 0.00 0.00 94 1017.7
20260510103847 60 215 1.0 5.0 0.00 0.00 0.00 95 1017.7
20260510103348 59 227 2.0 4.0 0.00 0.00 0.00 95 1017.6
20260510102843 59 171 0.0 3.0 0.00 0.00 0.00 95 1017.5
20260510102343 59 171 1.0 3.0 0.00 0.00 0.00 95 1017.5
20260510101901 59 200 1.0 3.0 0.00 0.00 0.00 95 1017.5
20260510101343 59 232 1.0 3.0 0.00 0.00 0.00 96 1017.5
20260510100840 59 232 0.0 4.0 0.00 0.00 0.00 96 1017.5
20260510100339 59 206 1.0 4.0 0.00 0.00 0.00 96 1017.5
20260510095851 59 200 0.0 5.0 0.00 0.00 0.00 96 1017.5
20260510095330 59 200 2.0 6.0 0.00 0.00 0.00 96 1017.4
20260510094909 59 204 2.0 6.0 0.00 0.00 0.00 96 1017.5
20260510094347 59 178 1.0 6.0 0.00 0.00 0.00 96 1017.6
20260510093843 59 193 1.0 5.0 0.00 0.00 0.00 95 1017.5
20260510093343 59 209 1.0 2.0 0.00 0.00 0.00 95 1017.4
20260510092837 59 209 1.0 2.0 0.00 0.00 0.00 95 1017.4
20260510092336 59 214 0.0 1.0 0.00 0.00 0.00 94 1017.3
20260510091835 59 214 0.0 2.0 0.00 0.00 0.00 94 1017.2
20260510091336 59 212 0.0 3.0 0.00 0.00 0.00 94 1017.2
20260510090835 59 212 2.0 3.0 0.00 0.00 0.00 94 1017.2
20260510090333 59 212 0.0 3.0 0.00 0.00 0.00 94 1017.1
20260510085909 59 213 0.0 4.0 0.00 0.00 0.00 94 1017.1
20260510085348 60 213 1.0 4.0 0.00 0.00 0.00 94 1017.0
20260510084830 60 213 1.0 3.0 0.00 0.00 0.00 94 1017.0
20260510084330 60 213 2.0 3.0 0.00 0.00 0.00 94 1017.0
20260510083847 60 230 1.0 3.0 0.00 0.00 0.00 94 1016.8
20260510083408 60 231 0.0 1.0 0.00 0.00 0.00 94 1016.7
20260510082840 60 231 0.0 1.0 0.00 0.00 0.00 94 1016.7
20260510082340 60 231 0.0 4.0 0.00 0.00 0.00 93 1016.6
20260510081859 60 231 1.0 4.0 0.00 0.00 0.00 93 1016.6
20260510081338 60 195 0.0 3.0 0.00 0.00 0.00 93 1016.6
20260510080837 60 217 0.0 2.0 0.00 0.00 0.00 93 1016.4
20260510080338 60 221 1.0 2.0 0.00 0.00 0.00 93 1016.4
20260510075847 60 231 1.0 3.0 0.00 0.00 0.00 93 1016.3
20260510075407 60 200 1.0 3.0 0.00 0.00 0.00 93 1016.2
20260510074845 60 194 2.0 3.0 0.00 0.00 0.00 93 1016.2
20260510074345 60 222 1.0 3.0 0.00 0.00 0.00 92 1016.2
20260510073842 60 205 0.0 2.0 0.00 0.00 0.00 92 1016.2
20260510073343 61 205 1.0 2.0 0.00 0.00 0.00 92 1016.1
20260510072833 61 205 1.0 2.0 0.00 0.00 0.00 91 1016.1
20260510072333 61 205 0.0 2.0 0.00 0.00 0.00 91 1016.1
20260510071851 61 205 0.0 5.0 0.00 0.00 0.00 91 1016.1
20260510071330 61 205 1.0 5.0 0.00 0.00 0.00 91 1016.0
20260510070832 61 204 1.0 3.0 0.00 0.00 0.00 91 1016.0
20260510070352 61 203 1.0 3.0 0.00 0.00 0.00 90 1016.0
20260510065845 61 223 1.0 2.0 0.00 0.00 0.00 90 1016.1
20260510065343 61 223 1.0 2.0 0.00 0.00 0.00 90 1016.1
20260510064842 61 220 1.0 2.0 0.00 0.00 0.00 90 1016.0
20260510064341 61 221 0.0 0.0 0.00 0.00 0.00 90 1016.0
20260510063858 61 221 0.0 0.0 0.00 0.00 0.00 90 1015.9
20260510063339 61 221 0.0 0.0 0.00 0.00 0.00 90 1016.0
20260510062853 61 221 0.0 1.0 0.00 0.00 0.00 90 1016.1
20260510062332 61 221 0.0 2.0 0.00 0.00 0.00 89 1016.1
20260510061910 61 221 1.0 2.0 0.00 0.00 0.00 89 1016.1
20260510061349 61 221 0.0 2.0 0.00 0.00 0.00 89 1016.1
20260510060846 61 221 0.0 3.0 0.00 0.00 0.00 89 1016.3
20260510060348 61 211 0.0 1.0 0.00 0.00 0.00 89 1016.2
20260510055843 61 211 0.0 2.0 0.00 0.00 0.00 89 1016.1
20260510055343 61 211 0.0 2.0 0.00 0.00 0.00 89 1016.2
20260510054840 61 211 0.0 2.0 0.00 0.00 0.00 88 1016.3
20260510054340 61 211 0.0 2.0 0.00 0.00 0.00 88 1016.2
20260510053839 61 211 0.0 1.0 0.00 0.00 0.00 87 1016.3
20260510053343 62 211 0.0 1.0 0.00 0.00 0.00 87 1016.3
20260510052838 62 211 0.0 2.0 0.00 0.00 0.00 87 1016.3
20260510052338 62 211 0.0 2.0 0.00 0.00 0.00 87 1016.4
20260510051835 62 199 0.0 1.0 0.00 0.00 0.00 87 1016.4
20260510050843 62 200 0.0 3.0 0.00 0.00 0.00 87 1016.4
20260510050344 62 200 1.0 3.0 0.00 0.00 0.00 87 1016.4
20260510045839 62 205 1.0 2.0 0.00 0.00 0.00 87 1016.6
20260510045339 62 215 0.0 1.0 0.00 0.00 0.00 86 1016.6
20260510044836 62 215 0.0 1.0 0.00 0.00 0.00 86 1016.5
20260510044356 62 215 0.0 2.0 0.00 0.00 0.00 85 1016.5
20260510043849 62 215 1.0 2.0 0.00 0.00 0.00 85 1016.6
20260510043350 62 215 1.0 2.0 0.00 0.00 0.00 85 1016.7
20260510042903 63 215 0.0 2.0 0.00 0.00 0.00 85 1016.6
20260510042402 63 215 1.0 2.0 0.00 0.00 0.00 85 1016.6
20260510041839 63 215 1.0 1.0 0.00 0.00 0.00 85 1016.6
20260510041339 63 215 0.0 2.0 0.00 0.00 0.00 85 1016.6
20260510040839 63 215 0.0 2.0 0.00 0.00 0.00 85 1016.6
20260510040340 63 215 0.0 2.0 0.00 0.00 0.00 85 1016.4
20260510035833 63 215 0.0 0.0 0.00 0.00 0.00 85 1016.5
20260510035334 63 215 0.0 2.0 0.00 0.00 0.00 85 1016.4
20260510034850 63 215 0.0 2.0 0.00 0.00 0.00 85 1016.4
20260510034349 63 215 1.0 2.0 0.00 0.00 0.00 84 1016.4
20260510033907 64 215 1.0 2.0 0.00 0.00 0.00 84 1016.3
20260510033345 64 215 1.0 2.0 0.00 0.00 0.00 83 1016.4
20260510032840 64 215 1.0 2.0 0.00 0.00 0.00 83 1016.4
20260510032400 64 215 0.0 2.0 0.00 0.00 0.00 83 1016.4
20260510031836 64 215 0.0 2.0 0.00 0.00 0.00 82 1016.4
20260510031337 64 208 0.0 3.0 0.00 0.00 0.00 82 1016.3
20260510030835 64 208 0.0 2.0 0.00 0.00 0.00 82 1016.3
20260510030416 64 208 0.0 1.0 0.00 0.00 0.00 82 1016.3
20260510025846 64 208 0.0 2.0 0.00 0.00 0.00 82 1016.3
20260510025346 65 208 0.0 2.0 0.00 0.00 0.00 81 1016.2
20260510024844 65 208 0.0 1.0 0.00 0.00 0.00 81 1016.1
20260510024345 65 208 0.0 2.0 0.00 0.00 0.00 81 1016.0
20260510023843 65 208 0.0 2.0 0.00 0.00 0.00 81 1016.0
20260510023347 65 208 0.0 1.0 0.00 0.00 0.00 80 1015.9
20260510022859 65 208 0.0 3.0 0.00 0.00 0.00 80 1015.9
20260510022338 66 208 1.0 3.0 0.00 0.00 0.00 80 1015.9
20260510021835 66 208 2.0 3.0 0.00 0.00 0.00 79 1016.0
20260510021354 66 209 0.0 2.0 0.00 0.00 0.00 79 1015.8
20260510020829 66 209 0.0 2.0 0.00 0.00 0.00 79 1015.7
20260510020350 66 209 0.0 3.0 0.00 0.00 0.00 79 1015.6
20260510015844 66 208 1.0 3.0 0.00 0.00 0.00 79 1015.6
20260510015342 66 208 1.0 2.0 0.00 0.00 0.00 79 1015.5
20260510014841 66 173 0.0 0.0 0.00 0.00 0.00 79 1015.5
20260510014340 66 173 0.0 1.0 0.00 0.00 0.00 79 1015.4
20260510013836 66 173 0.0 1.0 0.00 0.00 0.00 79 1015.3
20260510013357 66 173 0.0 2.0 0.00 0.00 0.00 78 1015.2
20260510012831 67 173 1.0 2.0 0.00 0.00 0.00 77 1015.2
20260510012332 67 173 0.0 1.0 0.00 0.00 0.00 77 1015.2
20260510011848 67 173 0.0 1.0 0.00 0.00 0.00 76 1015.0
20260510011407 67 173 0.0 2.0 0.00 0.00 0.00 76 1014.8
20260510010906 68 173 0.0 2.0 0.00 0.00 0.00 76 1014.6
20260510010346 68 173 1.0 2.0 0.00 0.00 0.00 76 1014.5
20260510005841 68 167 0.0 2.0 0.00 0.00 0.00 75 1014.5
20260510005401 68 167 0.0 3.0 0.00 0.00 0.00 75 1014.4
20260510004840 68 167 1.0 2.0 0.00 0.00 0.00 75 1014.4
20260510004341 69 191 0.0 2.0 0.00 0.00 0.00 75 1014.3
20260510003837 69 190 0.0 1.0 0.00 0.00 0.00 74 1014.3
20260510003338 69 190 0.0 1.0 0.00 0.00 0.00 74 1014.2
20260510002833 69 190 0.0 1.0 0.00 0.00 0.00 73 1014.2
20260510002334 70 190 0.0 2.0 0.00 0.00 0.00 73 1014.1
20260510001851 70 190 1.0 2.0 0.00 0.00 0.00 72 1014.1
20260510001346 70 190 1.0 3.0 0.00 0.00 0.00 72 1014.0
20260510000904 70 188 0.0 3.0 0.00 0.00 0.00 72 1013.8
20260510000344 71 216 0.0 2.0 0.00 0.00 0.00 71 1013.8
20260509235838 71 216 0.0 2.0 0.00 0.00 0.00 71 1014.0
20260509235338 71 217 1.0 3.0 0.00 0.00 0.00 70 1014.1
20260509234837 71 217 1.0 3.0 0.00 0.00 0.00 70 1014.1
20260509234336 72 225 1.0 2.0 0.00 0.00 0.00 69 1014.0
20260509233834 72 225 0.0 3.0 0.00 0.00 0.00 70 1013.9
20260509233338 72 225 1.0 3.0 0.00 0.00 0.00 69 1013.8
20260509232854 72 225 0.0 2.0 0.00 0.00 0.00 69 1013.8
20260509232408 73 225 0.0 2.0 0.00 0.00 0.00 68 1013.7
20260509231844 73 225 0.0 2.0 0.00 0.00 0.00 68 1013.7
20260509231343 73 225 1.0 2.0 0.00 0.00 0.00 68 1013.5
20260509230839 73 82 1.0 2.0 0.00 0.00 0.00 68 1013.5
20260509230340 73 90 1.0 3.0 0.00 0.00 0.00 68 1013.5
20260509225835 73 184 1.0 3.0 0.00 0.00 0.00 68 1013.5
20260509225335 73 134 1.0 4.0 0.00 0.00 0.00 67 1013.5
20260509224335 74 38 0.0 3.0 0.00 0.00 0.00 68 1013.5
20260509223855 74 171 1.0 6.0 0.00 0.00 0.00 67 1013.4
20260509223333 74 274 1.0 6.0 0.00 0.00 0.00 67 1013.4
20260509222848 75 154 2.0 6.0 0.00 0.00 0.00 67 1013.3
20260509222348 75 317 2.0 5.0 0.00 0.00 0.00 68 1013.2
20260509221908 75 267 1.0 5.0 0.00 0.00 0.00 68 1013.1
20260509221346 75 115 1.0 3.0 0.00 0.00 0.00 70 1013.0
20260509220846 75 188 1.0 4.0 0.00 0.00 0.00 69 1013.0
20260509220345 76 198 0.0 3.0 0.00 0.00 0.00 69 1012.9
20260509215856 76 101 2.0 4.0 0.00 0.00 0.00 68 1012.9
20260509215355 76 196 2.0 7.0 0.00 0.00 0.00 68 1012.9
20260509214837 76 200 3.0 7.0 0.00 0.00 0.00 68 1012.8
20260509214357 76 250 1.0 7.0 0.00 0.00 0.00 68 1012.9
20260509213833 76 206 3.0 7.0 0.00 0.00 0.00 68 1012.9
20260509213334 76 202 2.0 5.0 0.00 0.00 0.00 68 1012.8
20260509212846 77 171 1.0 7.0 0.00 0.00 0.00 67 1012.9
20260509212345 77 165 4.0 7.0 0.00 0.00 0.00 67 1012.9
20260509211843 77 154 2.0 6.0 0.00 0.00 0.00 66 1012.9
20260509211342 77 162 1.0 6.0 0.00 0.00 0.00 66 1012.9
20260509210841 77 49 3.0 6.0 0.00 0.00 0.00 65 1012.8
20260509210342 77 117 1.0 7.0 0.00 0.00 0.00 65 1012.9
20260509205837 78 188 2.0 9.0 0.00 0.00 0.00 64 1012.9
20260509205334 78 148 1.0 9.0 0.00 0.00 0.00 63 1012.9
20260509204851 78 202 3.0 7.0 0.00 0.00 0.00 63 1012.9
20260509204330 78 232 3.0 8.0 0.00 0.00 0.00 63 1012.7
20260509203848 77 194 2.0 8.0 0.00 0.00 0.00 61 1012.7
20260509203408 77 182 3.0 7.0 0.00 0.00 0.00 63 1012.6
20260509202842 77 113 1.0 7.0 0.00 0.00 0.00 63 1012.5
20260509202402 77 188 4.0 8.0 0.00 0.00 0.00 62 1012.5
20260509201836 77 269 2.0 8.0 0.00 0.00 0.00 64 1012.5
20260509201340 77 212 2.0 7.0 0.00 0.00 0.00 64 1012.5
20260509200838 77 207 3.0 8.0 0.00 0.00 0.00 62 1012.8
20260509200338 77 140 1.0 8.0 0.00 0.00 0.00 62 1012.6
20260509195830 77 202 2.0 4.0 0.00 0.00 0.00 61 1012.8
20260509195349 78 225 1.0 6.0 0.00 0.00 0.00 62 1013.0
20260509194843 78 170 2.0 9.0 0.00 0.00 0.00 62 1013.1
20260509194402 77 206 4.0 9.0 0.00 0.00 0.00 60 1013.2
20260509193411 77 215 2.0 5.0 0.00 0.00 0.00 61 1013.3
20260509192906 77 305 2.0 8.0 0.00 0.00 0.00 61 1013.4
20260509192345 77 192 2.0 9.0 0.00 0.00 0.00 62 1013.3
20260509191844 77 209 3.0 7.0 0.00 0.00 0.00 61 1013.2
20260509191340 77 197 3.0 7.0 0.00 0.00 0.00 61 1013.4
20260509190857 76 213 2.0 9.0 0.00 0.00 0.00 62 1013.3
20260509190337 76 181 2.0 9.0 0.00 0.00 0.00 63 1013.5
20260509185833 76 194 1.0 10.0 0.00 0.00 0.00 64 1013.6
20260509185353 76 194 4.0 10.0 0.00 0.00 0.00 63 1013.5
20260509184850 76 173 2.0 9.0 0.00 0.00 0.00 64 1013.8
20260509184349 76 270 4.0 10.0 0.00 0.00 0.00 62 1013.8
20260509183845 76 174 3.0 11.0 0.00 0.00 0.00 62 1013.7
20260509183348 76 217 3.0 8.0 0.00 0.00 0.00 62 1013.7
20260509182840 76 206 2.0 12.0 0.00 0.00 0.00 62 1013.7
20260509182359 76 205 5.0 12.0 0.00 0.00 0.00 62 1014.0
20260509181835 75 188 2.0 4.0 0.00 0.00 0.00 63 1014.0
20260509181335 76 67 2.0 5.0 0.00 0.00 0.00 65 1013.8
20260509180832 76 266 1.0 5.0 0.00 0.00 0.00 64 1013.7
20260509180413 77 10 1.0 4.0 0.00 0.00 0.00 67 1013.7
20260509175906 77 227 1.0 7.0 0.00 0.00 0.00 66 1013.7
20260509175345 76 133 2.0 6.0 0.00 0.00 0.00 64 1013.4
20260509174842 76 191 1.0 4.0 0.00 0.00 0.00 64 1013.5
20260509174341 75 193 1.0 4.0 0.00 0.00 0.00 64 1013.5
20260509173839 75 9 1.0 9.0 0.00 0.00 0.00 68 1013.6
20260509173339 75 5 2.0 9.0 0.00 0.00 0.00 67 1013.7
20260509172834 75 225 4.0 9.0 0.00 0.00 0.00 66 1013.9
20260509172353 74 145 2.0 6.0 0.00 0.00 0.00 68 1014.1